Location: *
(58.4167°N, 22.5000°E)
Time: 12:56:52
(UTC+00:00)

Resurs 01 Rocket - Pass Details

Date: 22 September 2019
Orbit: 635 x 644 km, 98.0° (Epoch: 18 October)

Event Time Altitude Azimuth Distance (km) Brightness Sun altitude
Exits shadow 19:02:49 19° 189° (S) 1,533 3.3 -19.5°
Maximum altitude 19:05:50 52° 259° (W) 809 2.3 -19.8°
Drops below altitude 10° 19:10:13 10° 337° (NNW) 2,056 5.1 -20.3°
Sets 19:12:30 0° 342° (NNW) 2,971 6.0 -20.5°
